STARLINK-1770 (46383 NORAD) Tracking and Keplerian Element Data

This shows tracking and keplerian element data for the satellite.

Feedback or suggestion? Click here.




ElementValue
Catalog46383
NameSTARLINK-1770
Epoch Orbit177
Epoch Day267.58334491
Epoch Year2020
RAAN331.0709
Inclination53.0021
Eccentricity0.0001218
Argument of Perigee71.1002
Mean Anonmoly169.1967
Mean Motion15.62752215
Decay Rate-2.14E-06
L11 46383U 20062BL 20267.58334491 -.00000214 00000-0 34961-5 0 9994
L22 46383 53.0021 331.0709 0001218 71.1002 169.1967 15.62752215 1773

Live tracking and technical data element details for STARLINK-1770 (NORAD 46383). STARLINK-1770 can be tracked NOW for your location showing map with azimuth and elevation plus other details from your city location.

Track the satellite on the map from your city or location and see movement details for azimuth, elevation, latitude, longitude, range, height, and movement on the map or in text.







IsCatalogInMostPopularTable: catalog: 46383, numindb: 11
Update: records affected: 1



GetName: 46383 STARLINK-1770

Hit Count: updated at: Thu, 24 Sep 2020 16:42:53 GMT